sat.trackr.live / text

‹ back to catalog

STARLINK-1892

NORAD 46743 · 2020-074E

PAYLOAD ACTIVE UNKNOWN

§ Identity

Operator
Country
US
Launch date
2020-10-24
Launch site
AFETR
Launch vehicle
Mass (kg)
RCS (m²)

Purposes: comms

External: N2YO · Heavens-Above · Gunter

§ Orbital elements

Epoch: 2026-05-25T02:34:36.609888Z

Period
91.96 min
Inclination
53.0405°
Eccentricity
0.0006047
Mean motion
15.65903895 rev/d
Perigee alt
366.6 km
Apogee alt
374.7 km
Semi-major
6,748.8 km
B*
8.1200e-4
RAAN
282.0316°
Arg perigee
291.7242°
Mean anomaly
68.3129°
Rev number
30,899

§ Raw data

STARLINK-18921 46743U 20074E   26145.10736817  .00084609  00000+0  81200-3 0  99982 46743  53.0405 282.0316 0006047 291.7242  68.3129 15.65903895308998

JSON: /api/v1/satellites/46743 · /tle

For live sub-satellite position, see the globe view (requires WebGL).

§ Visibility from observer

Set your observer location to see the next 7 days of passes ≥ 10°. The values pass through the URL so the page stays shareable.

No JS? Fill the form by hand. The geolocation button needs JavaScript.